Temp
-10 -10 -10 -11 -11 -11 -12 -12 -12 -11 -11 -12 -12 -12 -12 -12 -12 -13 -12 -13 -13 -13 -13 -13 -13 -12 -13 -14 -13 -14 -14 -14
-11 -11 -11 -11 -11 -11 -11 -11 -12 -11 -11 -12 -12 -12 -12 -12 -12 -12 -12 -13 -13 -13 -11 -13 -13 -13 -12 -13 -14 -13 -14 -14
-11 -11 -11 -11 -11 -11 -11 -11 -11 -11 -12 -11 -11 -11 -12 -12 -12 -12 -12 -12 -13 -13 -12 -12 -13 -12 -13 -13 -13 -14 -13 -14
-12 -11 -11 -11 -11 -11 -11 -11 -11 -11 -11 -12 -11 -11 -11 -12 -13 -13 -13 -13 -13 -13 -13 -12 -12 -13 -13 -13 -13 -13 -14 -14
-12 -12 -12 -12 -11 -11 -12 -11 -11 -11 -11 -11 -11 -11 -11 -12 -12 -13 -13 -12 -13 -13 -13 -13 -13 -13 -14 -14 -14 -13 -13 -14
-12 -12 -12 -12 -12 -12 -12 -11 -11 -11 -11 -11 -11 -11 -12 -12 -12 -13 -13 -13 -13 -13 -13 -14 -14 -14 -14 -14 -14 -13 -13 -14
-13 -12 -12 -12 -12 -12 -11 -11 -11 -11 -11 -12 -12 -12 -13 -12 -12 -13 -13 -14 -13 -13 -12 -13 -13 -13 -13 -13 -14 -13 -13 -13
-12 -12 -12 -12 -11 -11 -11 -11 -11 -11 -11 -12 -13 -13 -13 -12 -13 -12 -13 -13 -13 -13 -11 -13 -13 -12 -13 -13 -13 -14 -13 -13
-13 -13 -13 -12 -12 -12 -12 -12 -12 -13 -12 -13 -14 -15 -14 -13 -14 -14 -12 -13 -13 -12 -13 -13 -12 -13 -12 -13 -14 -14 -14 -14
-15 -15 -15 -15 -15 -15 -15 -16 -17 -17 -18 -18 -18 -17 -16 -15 -15 -14 -13 -13 -13 -13 -12 -13 -13 -12 -13 -13 -12 -12 -13 -13
-17 -18 -19 -19 -19 -19 -20 -20 -20 -20 -20 -19 -19 -18 -18 -16 -15 -14 -14 -14 -14 -13 -14 -13 -13 -13 -13 -13 -13 -13 -13 -13
-21 -21 -22 -22 -21 -21 -21 -22 -22 -21 -20 -20 -20 -19 -19 -18 -17 -17 -15 -15 -14 -14 -15 -14 -14 -14 -13 -14 -14 -13 -13 -14
-23 -23 -24 -23 -23 -22 -22 -22 -22 -22 -22 -21 -21 -20 -20 -19 -19 -19 -17 -16 -16 -15 -15 -14 -14 -14 -14 -14 -15 -14 -14 -15
-24 -25 -24 -24 -24 -23 -23 -23 -23 -23 -23 -22 -22 -22 -21 -21 -20 -19 -18 -17 -16 -17 -17 -15 -15 -14 -15 -14 -15 -15 -15 -15
-25 -25 -25 -25 -25 -24 -24 -24 -24 -23 -24 -23 -23 -23 -22 -21 -21 -20 -20 -20 -18 -19 -18 -17 -16 -16 -16 -16 -15 -15 -15 -15
-25 -25 -26 -26 -25 -26 -25 -25 -24 -24 -23 -23 -22 -22 -22 -22 -22 -21 -21 -20 -19 -18 -18 -17 -17 -17 -17 -17 -16 -16 -16 -16
-27 -26 -27 -27 -26 -26 -26 -26 -26 -25 -25 -24 -24 -23 -23 -23 -23 -22 -21 -21 -20 -19 -19 -18 -17 -19 -18 -18 -17 -18 -17 -17
-27 -27 -27 -27 -27 -27 -26 -27 -27 -27 -27 -26 -25 -25 -24 -24 -24 -23 -23 -22 -20 -21 -20 -20 -20 -19 -19 -19 -18 -18 -18 -18
-28 -28 -28 -28 -27 -27 -27 -27 -27 -27 -27 -27 -26 -26 -25 -25 -25 -24 -24 -23 -22 -21 -21 -21 -22 -22 -22 -20 -20 -19 -19 -19
Height
5778 5778 5778 5780 5779 5778 5776 5776 5774 5772 5769 5768 5767 5764 5764 5763 5764 5764 5765 5766 5767 5767 5766 5768 5767 5768 5769 5772 5772 5773 5773 5773
5771 5770 5770 5769 5769 5768 5767 5768 5767 5765 5762 5759 5758 5757 5753 5754 5754 5755 5755 5754 5754 5753 5755 5752 5753 5754 5754 5754 5758 5760 5760 5763
5761 5761 5759 5757 5755 5754 5753 5753 5753 5753 5753 5751 5748 5744 5743 5744 5742 5744 5745 5744 5743 5743 5742 5741 5740 5741 5745 5746 5746 5747 5750 5751
5751 5750 5749 5748 5745 5743 5741 5739 5739 5739 5741 5740 5736 5733 5732 5731 5731 5732 5732 5731 5730 5729 5729 5729 5729 5729 5730 5732 5734 5731 5734 5736
5740 5738 5738 5736 5733 5731 5729 5727 5725 5723 5723 5722 5723 5721 5720 5723 5720 5717 5716 5718 5716 5717 5714 5714 5714 5713 5714 5718 5719 5719 5719 5723
5723 5722 5721 5720 5718 5717 5714 5713 5711 5708 5706 5703 5702 5702 5702 5703 5703 5701 5701 5702 5701 5699 5699 5698 5698 5697 5698 5700 5702 5703 5705 5708
5705 5702 5701 5702 5702 5702 5700 5698 5696 5693 5689 5685 5683 5683 5683 5683 5683 5684 5683 5682 5682 5682 5682 5679 5678 5681 5681 5682 5685 5687 5690 5693
5688 5686 5686 5686 5686 5683 5680 5678 5674 5669 5666 5664 5664 5663 5664 5667 5659 5660 5663 5663 5663 5665 5661 5666 5662 5661 5658 5660 5664 5668 5673 5677
5669 5665 5660 5658 5658 5656 5653 5649 5647 5643 5641 5637 5637 5641 5642 5644 5628 5639 5642 5645 5642 5644 5647 5635 5642 5640 5622 5641 5648 5645 5649 5658
5644 5640 5634 5629 5627 5626 5624 5621 5617 5617 5616 5616 5616 5616 5621 5619 5620 5619 5622 5625 5624 5616 5625 5626 5623 5624 5625 5623 5614 5631 5624 5636
5619 5614 5609 5605 5602 5600 5600 5599 5599 5597 5596 5596 5595 5597 5598 5598 5601 5603 5601 5601 5600 5604 5609 5610 5606 5602 5601 5610 5609 5622 5621 5628
5598 5594 5591 5587 5583 5583 5584 5581 5581 5578 5578 5577 5578 5579 5578 5576 5579 5580 5582 5583 5582 5578 5589 5590 5589 5593 5591 5597 5599 5601 5612 5616
5579 5575 5573 5571 5568 5567 5565 5563 5563 5561 5560 5558 5558 5560 5559 5561 5562 5561 5561 5565 5569 5565 5567 5572 5578 5576 5575 5580 5583 5590 5599 5601
5564 5561 5557 5557 5552 5552 5551 5547 5545 5546 5544 5543 5543 5543 5544 5546 5548 5550 5549 5553 5556 5554 5556 5562 5561 5566 5566 5567 5571 5575 5581 5585
5547 5544 5541 5539 5536 5535 5535 5534 5529 5527 5526 5528 5529 5530 5531 5533 5535 5536 5537 5539 5540 5543 5546 5549 5551 5554 5555 5557 5559 5560 5564 5568
5527 5525 5523 5522 5521 5519 5518 5516 5515 5513 5512 5511 5512 5516 5519 5521 5521 5523 5525 5525 5527 5530 5532 5537 5536 5541 5544 5547 5549 5552 5555 5556
5512 5510 5508 5507 5506 5505 5504 5502 5501 5497 5497 5498 5497 5499 5503 5505 5508 5511 5511 5511 5513 5515 5515 5521 5524 5528 5531 5534 5537 5540 5545 5546
5497 5496 5495 5493 5492 5490 5490 5488 5487 5487 5487 5487 5486 5485 5487 5490 5493 5497 5498 5500 5502 5501 5503 5505 5510 5514 5516 5520 5523 5527 5531 5535
5479 5478 5477 5477 5475 5476 5474 5473 5472 5472 5473 5473 5472 5472 5473 5473 5479 5481 5484 5487 5489 5490 5492 5495 5498 5501 5503 5505 5512 5514 5518 5522
Wind_Speed
28 29 31 26 23 25 27 34 38 41 44 40 44 47 49 52 51 50 51 49 49 53 53 55 56 63 57 50 51 45 41 42
32 29 28 29 30 34 34 33 39 44 45 45 45 47 50 50 51 52 53 55 54 53 60 63 69 59 53 76 54 51 48 45
32 33 36 37 39 42 41 38 41 40 46 47 50 52 52 54 53 52 53 55 57 62 61 67 59 58 65 57 56 58 59 51
37 38 40 43 46 49 52 50 53 52 46 47 49 56 56 54 56 54 55 55 59 61 65 65 65 67 66 64 65 60 56 55
46 45 46 49 50 55 57 59 61 63 63 59 54 58 57 56 59 57 57 58 63 62 62 64 67 68 68 66 68 60 57 59
59 58 57 57 59 58 59 63 70 70 71 71 73 65 63 58 63 62 59 58 62 66 66 66 69 69 69 68 70 64 64 62
62 65 67 69 70 69 69 71 76 79 77 78 77 77 71 68 66 67 64 65 65 69 74 75 73 73 74 70 67 64 63 63
73 73 74 74 77 81 83 82 84 92 89 84 80 82 76 68 79 71 67 69 71 71 71 85 70 75 79 70 73 73 68 62
72 74 76 78 78 80 88 92 95 92 94 93 86 79 83 77 74 73 74 74 73 65 87 65 59 78 67 75 79 74 71 69
74 77 80 84 84 85 87 88 85 83 80 72 73 72 79 88 72 74 83 79 82 69 70 73 73 65 78 87 71 74 85 62
79 78 78 80 80 81 76 74 69 62 61 60 58 69 63 76 74 70 56 71 81 75 78 75 65 65 68 61 65 69 67 67
74 73 72 72 71 69 64 59 57 60 64 62 62 58 58 61 68 73 83 64 57 67 78 64 62 63 63 58 62 57 56 69
64 59 56 55 60 57 59 59 56 57 59 62 58 56 57 58 62 59 61 69 51 38 39 53 60 55 55 57 53 62 68 74
55 52 57 55 58 62 59 62 61 53 50 48 47 49 50 48 45 50 57 57 51 61 46 38 45 59 48 58 58 63 63 61
67 65 66 62 66 65 64 60 54 56 49 46 44 46 45 49 48 45 48 54 56 46 37 42 40 44 47 50 56 54 53 54
62 60 54 52 49 51 49 59 64 59 55 54 52 50 48 48 49 48 50 48 46 46 39 50 43 42 44 45 46 50 55 52
51 53 50 48 49 50 48 51 55 56 57 58 56 60 57 52 47 43 48 47 50 55 40 41 43 28 35 45 43 40 48 53
63 56 54 53 52 52 51 51 51 52 50 51 53 54 56 52 49 43 39 36 44 52 55 54 46 38 35 32 33 35 42 49
53 52 55 53 55 59 60 60 61 61 58 56 57 57 57 55 48 45 42 39 40 44 48 45 41 37 34 43 40 36 37 36
Wind_Direction
286 288 287 286 278 275 270 274 275 278 277 273 268 266 265 262 261 261 261 259 260 265 266 263 257 264 254 256 257 258 259 263
283 285 282 281 278 293 293 285 274 275 273 274 273 275 272 271 266 263 262 261 260 256 260 265 254 257 285 263 248 252 254 259
278 275 271 273 278 282 282 281 284 279 274 271 272 274 274 272 272 272 268 264 260 264 263 265 268 270 274 272 264 269 256 253
278 275 273 271 274 282 286 287 287 287 279 273 268 266 266 271 273 271 268 265 263 261 263 265 263 263 265 266 262 268 245 252
276 276 278 277 274 278 287 288 287 287 286 276 265 268 268 267 270 268 267 267 269 264 263 264 266 264 262 261 267 264 261 254
277 276 273 271 270 270 277 281 286 285 282 279 278 268 262 259 260 265 268 265 267 268 263 260 262 263 262 260 262 259 258 263
280 280 280 279 276 275 273 277 279 280 275 273 271 271 268 267 259 259 262 265 263 265 268 264 257 258 260 262 262 262 254 265
280 281 281 280 278 273 271 270 272 276 272 267 265 266 264 262 263 260 256 259 261 261 263 262 254 262 255 257 259 258 258 261
289 288 287 285 280 275 270 267 266 266 267 267 264 259 261 260 252 252 258 259 261 254 264 265 258 259 237 257 244 253 253 249
290 287 283 279 276 273 270 270 271 272 274 272 269 268 253 249 257 263 261 252 262 265 262 269 260 246 251 250 239 250 249 235
287 282 278 276 276 275 278 278 278 276 272 269 265 262 263 252 257 252 262 260 248 257 260 255 270 260 239 243 242 247 247 254
284 283 282 281 281 281 278 278 276 271 269 263 260 260 260 256 251 253 248 256 264 255 249 263 269 264 239 233 240 239 245 247
282 284 285 277 280 283 278 275 280 274 273 272 275 273 271 264 265 264 264 254 265 246 251 263 264 233 224 219 228 234 240 248
280 277 277 277 276 273 283 278 278 271 266 268 273 274 273 273 272 262 265 258 247 267 270 248 245 240 239 243 240 240 242 244
282 277 274 277 279 280 279 276 274 275 276 270 268 265 265 268 270 266 268 267 263 277 273 258 251 240 243 242 234 228 231 233
283 283 282 280 278 279 278 275 275 276 271 280 277 274 272 273 280 279 270 264 259 255 245 242 238 241 242 246 247 249 247 249
283 283 280 278 279 281 283 286 285 287 279 283 283 283 280 284 283 278 270 269 258 258 236 238 239 238 243 243 245 250 254 250
274 277 281 280 280 280 281 280 280 282 283 283 284 284 283 282 281 274 267 263 258 264 265 271 272 239 238 245 243 249 252 251
284 285 286 285 278 275 273 273 275 279 279 280 281 281 281 283 280 277 273 266 257 253 259 263 268 275 268 269 267 249 249 242